SCP
0 0 0 -0 0 -0 -0 0 -0 -0 0 0 -0 -0 -0 -0 0 -0 -0 0 0 -0 -0 -0 -0 -0 -0 -0 0 0 0 0 0 0 0 0 0 0 0 0 0 0 0 0 0 0 0 0 0
0 0 -0 -0 0 0 0 0 0 0 0 0 -0 -0 -0 -0 0 0 0 0 0 -0 0 0 -0 -0 -0 -0 0 0 0 0 0 0 0 0 0 0 0 0 0 0 0 0 0 0 0 0 0
0 0 -0 0 0 -0 0 0 0 -0 0 0 -0 0 -0 0 0 -0 -0 0 0 -0 0 -0 -0 -0 -0 0 0 0 0 0 0 0 0 0 0 0 0 0 0 0 0 0 0 0 0 0 0
0 0 0 0 -0 -0 0 0 0 -0 -0 -0 -0 0 -0 0 -0 0 -0 -0 0 0 0 -0 -0 -0 -0 0 0 0 0 0 0 0 0 0 0 0 0 0 0 0 0 0 0 0 0 0 0
0 -0 0 -0 0 -0 0 -0 0 0 0 0 -0 -0 0 -0 -0 -0 -0 -0 -0 0 0 0 -0 -0 -0 0 0 0 0 0 0 0 0 0 0 0 0 0 0 0 0 0 0 0 0 0 0
-0 -0 0 0 0 0 -0 -0 -0 -0 0 0 -0 -0 0 -0 -0 -0 -0 -0 0 -0 -0 -0 0 0 0 0 0 0 0 0 0 0 0 0 0 0 0 0 0 0 0 0 0 0 0 0 0
-0 -0 0 0 0 0 -0 0 -0 -0 0 0 0 -0 -0 -0 -0 -0 -0 -0 -0 0 0 0 0 0 0 0 0 0 0 0 0 0 0 0 0 0 0 0 0 0 0 0 0 0 0 0 0
-0 0 -0 0 -0 0 0 0 -0 0 0 0 0 0 0 -0 -0 -0 -0 -0 0 0 0 0 0 0 0 0 0 0 0 0 0 0 0 0 0 0 0 0 0 0 0 0 0 0 0 0 0
0 0 0 0 0 -0 -0 0 -0 -0 0 -0 0 -0 -0 0 0 -0 0 0 0 0 0 0 0 0 0 0 0 0 0 0 0 0 0 0 0 0 0 0 0 0 0 0 0 0 0 0 0
0 0 -0 -0 0 -0 0 -0 -0 0 0 0 0 -0 -0 -0 0 0 0 0 0 0 0 0 0 0 0 0 0 0 0 0 0 0 0 0 0 0 0 0 0 0 0 0 0 0 0 0 0
0 0 0 0 0 0 0 0 -0 0 0 0 0 0 0 0 0 0 0 0 0 0 0 0 0 0 0 0 0 0 0 0 0 0 0 0 0 0 0 0 0 0 0 0 0 0 0 0 0
-0 0 0 -0 0 0 0 0 0 0 0 0 0 0 0 0 0 0 0 0 0 0 0 0 0 0 0 0 0 0 0 0 0 0 0 0 0 0 0 0 0 0 0 0 0 0 0 0 0
0 -0 -0 0 0 0 0 0 0 0 0 0 0 0 0 0 0 0 0 0 0 0 0 0 0 0 0 0 0 0 0 0 0 0 0 0 0 0 0 0 0 0 0 0 0 0 0 0 0
-0 0 0 -0 0 0 0 0 0 0 0 0 0 0 0 0 0 0 0 0 0 0 0 0 0 0 0 0 0 0 0 0 0 0 0 0 0 0 0 0 0 0 0 0 0 0 0 0 0
0 -0 0 0 0 0 -0 0 0 0 0 0 0 0 0 0 0 0 0 0 0 0 0 0 0 0 0 0 0 0 0 0 0 0 0 0 0 -0 0 0 0 0 0 0 0 0 0 0 0
0 0 0 0 0 0 0 0 0 0 0 0 0 0 0 0 0 0 0 0 0 0 0 0 0 0 0 0 0 0 0 0 0 0 0 0 0 -0 0 0 0 0 0 0 0 0 0 0 0
0 0 0 0 0 0 0 0 0 0 -0 0 0 0 0 0 0 -0 -0 0 0 0 0 0 0 0 -0 -0 0 0 0 0 0 0 0 0 0 0 -0 0 0 0 0 0 0 0 0 0 0
0 0 0 0 0 0 0 0 0 -0 0 0 -0 -0 0 0 0 -0 -0 -0 0 0 0 -0 -0 0 0 -0 -0 -0 -0 0 0 0 0 0 0 0 0 0 0 0 0 0 0 0 0 0 0
0 0 0 0 0 0 0 0 0 0 -0 0 -0 -0 0 0 0 -0 -0 -0 0 0 0 0 0 0 0 -0 -0 -0 -0 0 0 0 0 0 0 0 0 0 0 0 0 0 0 0 0 0 0
0 0 0 0 0 0 0 0 -0 -0 -0 -0 -0 -0 0 0 0 0 0 0 0 0 0 0 0 0 0 0 -0 -0 -0 0 0 0 0 0 0 0 0 0 0 0 0 0 0 0 0 0 0
0 0 0 0 0 0 0 0 0 -0 0 -0 0 0 0 0 0 0 0 0 0 0 0 0 0 0 0 0 0 0 0 0 0 0 0 0 0 0 0 0 0 0 0 0 0 0 0 0 0
0 0 0 0 0 0 0 0 0 -0 -0 0 0 0 0 0 0 0 0 0 0 0 0 0 0 0 0 0 0 0 0 0 0 0 0 0 0 0 0 0 0 -0 0 0 0 0 0 0 0
0 -0 0 0 0 0 0 0 0 -0 0 0 0 0 0 0 0 0 0 0 0 0 0 0 0 0 0 0 0 0 0 0 0 0 0 0 0 0 0 0 0 0 0 0 0 0 0 0 0
-0 0 0 0 0 0 0 0 0 0 0 0 0 0 0 0 0 0 0 0 0 0 0 0 0 0 0 0 0 0 0 0 0 0 0 0 0 0 0 0 0 0 0 0 0 0 0 0 0
0 0 0 0 0 0 0 0 0 -0 -0 0 0 0 0 0 0 0 0 0 0 0 0 0 0 0 0 0 0 0 0 0 0 0 0 0 0 0 0 0 0 0 0 0 0 0 0 0 0
0 0 0 0 0 0 0 0 0 0 0 0 0 0 0 0 0 0 0 0 0 0 0 0 0 0 0 0 0 0 0 0 0 0 0 0 0 0 0 0 0 -0 0 0 0 0 0 0 0
0 0 0 0 0 0 0 0 0 0 0 0 0 0 0 0 0 0 0 0 0 0 0 0 0 0 0 0 0 0 0 0 0 0 0 0 -0 0 0 0 -0 0 0 0 0 0 0 0 0
0 0 0 0 0 0 0 0 0 0 0 0 0 0 0 0 0 0 0 0 0 0 0 0 0 0 0 0 0 0 0 0 0 0 0 -0 0 0 0 -0 0 0 0 -0 0 0 0 0 0
0 0 0 0 0 0 0 0 0 0 0 0 0 0 0 0 0 0 0 0 0 0 0 0 0 0 0 0 0 0 0 0 0 0 0 0 0 0 0 0 -0 -0 -0 -0 -0 -0 -0 0 0
0 0 0 0 0 0 0 0 0 0 0 0 0 0 0 0 0 0 0 0 0 0 0 0 0 0 0 0 0 0 0 0 0 0 0 0 0 0 0 0 0 0 0 0 0 0 0 0 0
Wind_Speed_500mb
18 13 9 5 10 13 9 12 14 15 26 48 61 37 28 33 7 22 38 41 35 25 26 23 20 21 21 19 17 15 14 13 10 13 15 18 22 26 29 32 34 34 34 33 32 32 32 31 28
11 8 2 8 9 10 5 8 15 13 33 47 44 43 46 27 41 40 38 37 30 28 25 21 19 18 17 15 14 12 12 9 9 11 15 18 21 26 28 31 32 32 32 31 31 31 32 32 31
1 6 6 9 9 12 6 12 17 28 34 22 19 35 18 31 27 21 35 42 34 28 23 20 18 16 14 13 11 10 9 8 10 12 15 19 22 25 27 28 28 27 27 26 26 26 28 29 30
6 6 8 9 19 11 21 18 10 17 20 23 17 21 26 34 32 44 44 38 29 25 22 19 16 16 15 13 9 8 6 8 9 12 15 18 22 24 25 24 23 22 21 19 18 19 21 24 27
2 8 11 10 8 5 5 11 16 14 6 15 45 26 25 46 48 43 44 38 31 28 21 18 15 13 11 10 10 8 7 7 7 9 12 16 19 20 20 19 17 15 13 10 11 14 17 19 20
2 9 9 6 6 13 2 10 4 12 25 42 47 37 23 35 47 45 43 41 37 39 31 23 18 15 14 12 11 12 11 9 9 10 12 14 15 15 13 11 9 7 5 4 8 12 13 12 18
6 9 9 9 6 12 10 5 11 8 14 19 26 16 24 53 54 49 48 42 40 36 32 25 24 17 14 13 15 15 14 12 11 10 10 10 8 8 7 5 2 2 3 4 6 6 5 4 10
7 12 12 9 3 9 2 10 11 16 17 18 29 11 18 36 54 60 57 50 41 34 28 23 20 16 12 12 12 12 13 14 14 14 12 12 14 13 12 7 4 7 9 5 5 7 5 8 5
8 8 12 16 19 13 12 7 3 4 26 45 27 50 38 49 55 54 55 50 46 42 34 22 20 17 13 10 12 13 13 11 13 14 15 14 14 17 16 15 16 17 18 15 13 13 15 11 10
9 10 8 12 14 14 23 2 11 11 38 32 41 43 48 44 44 47 45 44 36 24 19 26 23 19 13 14 13 9 8 10 9 7 10 14 18 18 23 23 26 26 29 29 24 23 23 18 18
10 10 30 22 57 53 16 11 15 30 16 20 30 45 45 41 42 43 42 38 29 26 25 26 23 20 11 10 5 1 4 10 14 17 22 22 25 27 24 22 32 35 48 42 36 25 29 12 27
40 40 29 31 43 31 16 14 31 37 25 37 42 43 45 41 39 37 34 36 28 22 18 13 12 8 6 2 1 4 9 13 16 14 14 19 25 27 25 20 25 21 24 27 18 31 40 40 37
60 33 43 55 52 53 50 35 34 45 43 42 39 36 38 40 36 34 30 29 25 24 23 17 12 11 10 7 7 9 12 20 24 22 23 24 25 28 29 27 24 22 29 33 33 23 26 33 38
43 60 63 63 56 53 41 45 15 33 36 39 36 35 33 30 30 27 24 22 21 22 22 17 16 16 12 11 10 12 22 23 20 25 23 20 15 19 24 25 21 21 24 26 30 36 39 43 45
57 29 34 47 50 20 67 20 21 40 39 36 28 22 25 29 26 26 25 25 20 21 22 24 25 28 27 21 18 18 20 24 22 27 27 26 33 36 31 19 13 15 14 15 20 25 30 36 40
6 12 8 15 29 13 8 16 41 46 41 18 19 19 23 26 30 26 20 20 19 21 24 30 30 33 39 18 15 22 27 26 26 19 26 24 27 37 28 28 23 25 27 27 23 20 22 28 34
15 5 6 13 17 15 15 27 36 39 31 33 27 27 22 24 24 25 20 20 18 18 22 26 27 36 31 27 20 40 42 36 25 15 17 19 27 25 32 40 31 37 35 31 23 18 21 23 22
9 6 2 8 8 42 43 42 31 13 20 27 30 31 25 23 20 17 20 16 11 9 16 24 26 28 22 19 32 42 36 33 21 11 16 16 16 23 31 34 38 35 32 28 27 30 25 24 19
10 8 12 13 15 37 37 34 21 16 26 24 27 26 25 20 16 13 10 0 8 7 19 20 19 25 25 26 44 46 40 32 27 21 23 24 26 22 26 32 29 31 33 28 24 29 31 27 24
12 7 10 31 48 45 30 22 11 19 16 23 30 25 23 17 11 2 6 6 8 7 12 15 22 27 32 44 50 47 41 30 27 29 26 24 26 25 28 27 28 33 28 26 23 25 28 28 21
7 5 3 27 34 40 48 17 10 11 15 15 19 19 16 13 9 3 2 3 10 6 12 23 23 27 35 48 46 44 48 42 35 30 28 24 26 26 27 30 33 30 22 23 19 18 18 19 15
16 10 14 30 15 11 17 9 6 1 5 25 19 22 26 13 8 4 9 10 6 9 12 7 20 34 44 42 44 42 39 35 30 29 26 22 22 23 27 33 32 23 28 21 16 11 11 14 10
3 3 9 9 14 11 13 11 5 8 5 12 19 25 21 11 12 5 15 4 5 6 8 19 28 33 37 45 44 40 36 33 32 34 32 24 23 25 27 26 26 21 15 15 11 10 7 7 7
2 17 18 11 9 9 16 8 6 4 12 12 23 25 16 10 11 5 6 7 5 3 13 26 37 41 44 51 41 45 42 34 36 33 29 27 22 22 18 16 14 9 8 10 9 8 7 6 10
23 16 8 10 10 4 8 14 7 7 12 19 33 27 15 12 8 14 12 6 12 18 25 35 44 34 34 38 39 46 44 40 32 31 30 25 20 15 9 7 6 9 9 14 14 8 5 4 9
9 12 9 4 5 8 11 6 4 3 25 27 27 20 23 14 11 19 14 11 14 26 35 40 28 33 35 43 42 38 38 35 31 35 30 19 14 12 19 13 10 12 15 14 17 14 10 8 11
8 7 3 8 10 10 2 2 5 17 19 30 27 24 20 24 21 14 10 14 25 29 28 29 30 32 39 51 40 33 37 44 38 30 24 18 12 21 18 18 16 18 18 27 29 25 21 14 19
13 5 10 8 5 6 4 2 2 16 18 19 26 27 33 31 22 11 10 20 25 27 24 20 27 34 38 44 38 35 30 31 33 29 24 16 22 22 19 22 18 17 14 21 23 27 27 21 18
12 10 11 9 6 8 8 4 9 12 15 19 28 26 41 31 17 10 15 22 21 19 18 23 28 33 36 42 43 40 34 34 25 25 20 19 23 17 12 15 15 14 13 15 19 22 23 23 24
9 8 9 9 2 6 7 2 8 28 32 40 36 39 40 27 15 14 20 21 23 18 17 21 30 29 38 40 39 42 38 31 32 27 24 18 13 12 12 13 14 13 7 9 10 12 17 18 21
Wind_Direction_500mb
320 319 325 9 52 69 44 344 311 49 60 73 78 83 72 58 35 121 135 137 144 152 132 127 121 119 118 126 126 123 121 117 103 109 115 119 121 120 118 116 116 113 108 102 97 92 89 89 98
291 315 20 79 78 61 33 314 341 328 98 91 84 88 77 79 94 127 126 131 141 135 130 128 124 120 122 125 123 129 133 128 117 123 127 128 127 125 124 123 119 115 109 105 100 93 85 80 80
1 315 48 100 79 87 29 318 328 0 9 44 82 68 65 119 96 108 124 125 134 125 123 122 123 123 128 131 136 141 141 131 130 134 135 135 133 130 130 129 126 121 115 108 97 87 77 75 74
161 92 102 64 99 134 165 239 296 337 340 358 108 57 66 105 114 130 122 124 118 120 123 117 121 128 133 135 131 130 113 120 137 145 146 140 138 137 136 136 132 127 118 107 90 74 67 69 76
48 83 48 71 82 90 31 79 24 65 165 89 81 86 85 100 114 118 116 112 104 107 104 108 108 115 119 109 91 77 86 100 124 138 142 142 142 141 142 144 141 133 130 104 74 59 53 60 73
111 108 75 93 129 139 81 31 215 184 120 110 81 88 76 120 126 117 106 99 97 93 81 80 89 96 97 93 81 81 87 102 118 129 139 145 146 148 150 152 141 131 140 81 36 26 31 55 76
138 80 104 126 126 34 32 33 260 162 65 35 93 89 102 105 112 110 112 108 100 90 80 79 77 76 80 94 91 90 91 95 103 110 118 128 129 135 158 170 165 33 37 4 16 347 7 101 103
189 90 120 126 187 52 205 231 280 55 59 66 35 116 94 103 120 122 114 108 110 97 87 75 67 73 79 87 91 85 92 102 109 114 127 157 172 184 192 206 233 247 213 270 286 285 202 207 204
215 75 130 153 139 216 186 178 279 352 90 63 82 95 110 112 127 124 114 109 103 95 90 76 68 65 70 77 90 98 111 124 137 151 179 198 210 216 205 217 228 225 232 248 253 246 216 221 241
95 94 63 185 101 126 135 198 104 92 91 83 75 104 117 132 108 106 98 91 88 81 76 90 95 90 78 83 104 112 135 168 170 192 215 232 236 236 242 236 250 250 258 262 258 246 226 227 250
22 108 113 83 119 133 126 108 29 116 72 78 95 99 110 110 94 91 85 80 72 68 74 67 77 93 93 116 124 155 272 266 275 280 265 268 264 259 260 260 259 257 267 261 288 249 225 250 258
90 70 99 125 113 118 113 80 70 72 86 103 101 102 102 99 94 90 84 84 85 76 65 78 68 52 47 74 240 262 276 295 305 299 284 270 273 280 283 285 271 265 254 248 263 270 252 258 246
106 111 121 133 138 139 130 112 99 87 101 104 102 91 91 93 90 87 85 92 93 91 89 81 82 75 62 34 14 343 330 313 313 318 299 288 281 288 291 290 285 267 261 277 287 267 235 231 238
147 136 131 144 139 130 110 125 87 113 111 93 87 91 98 93 92 94 98 92 83 74 59 62 60 58 56 44 37 16 355 358 344 343 342 338 344 348 329 312 304 289 281 270 265 265 262 261 262
147 121 132 152 149 132 119 72 93 108 92 84 76 67 90 103 108 99 94 89 79 61 50 46 37 25 14 0 358 7 348 332 327 339 337 335 335 344 342 328 331 317 309 290 278 273 274 270 266
211 73 39 168 146 113 279 99 104 103 79 75 95 96 104 107 106 99 87 74 63 52 44 44 35 15 14 353 329 342 323 312 312 329 307 311 318 326 338 349 325 332 324 308 306 303 302 294 280
2 141 179 19 73 104 93 130 115 104 110 161 135 121 119 119 110 99 75 63 50 39 36 26 18 17 22 17 6 4 356 327 319 311 295 312 323 319 331 328 317 312 309 304 312 307 312 311 298
224 153 315 160 67 90 100 109 106 119 135 147 142 137 133 126 116 94 67 46 22 2 16 17 12 17 16 9 1 355 349 340 342 325 330 326 303 304 314 307 307 305 300 297 295 299 311 316 324
150 114 208 75 99 68 94 116 120 145 179 150 138 144 151 141 121 102 80 356 284 309 8 6 2 2 356 348 348 351 343 322 320 309 315 294 295 305 308 311 312 320 312 302 302 299 297 302 313
116 97 93 60 87 98 116 118 137 170 162 160 155 158 154 136 112 129 251 234 312 10 11 344 341 349 345 347 349 348 338 329 317 307 316 303 300 301 297 308 316 323 323 310 304 299 294 290 305
125 131 52 129 90 124 125 88 100 76 115 141 166 168 148 134 151 176 12 299 322 270 349 353 342 334 339 345 343 345 339 336 327 323 324 329 318 306 293 299 316 320 323 320 320 308 281 280 290
41 326 37 127 166 185 211 120 95 132 41 120 101 139 149 137 141 205 343 25 16 341 346 334 331 343 346 347 341 338 341 344 338 330 327 325 313 302 288 302 312 318 309 319 322 312 266 264 267
162 346 32 58 71 116 38 90 96 198 92 116 127 153 164 142 179 24 48 46 17 319 308 338 336 347 355 349 342 349 350 341 331 323 316 301 295 291 291 314 319 318 314 317 318 308 282 249 219
119 39 35 45 85 55 321 115 313 243 155 156 172 187 153 156 210 175 129 205 356 68 341 345 345 349 341 335 355 352 349 346 340 336 334 335 323 294 304 316 327 350 10 356 331 320 315 259 204
56 51 3 4 29 81 297 54 214 226 188 171 177 177 178 157 124 124 130 60 15 358 348 340 337 353 4 360 353 347 339 334 344 350 345 339 340 348 321 338 48 48 13 4 344 322 259 181 191
77 125 140 265 189 175 16 83 211 157 127 154 160 158 147 120 122 109 92 56 13 354 349 1 22 12 11 3 356 3 9 5 358 352 350 355 350 27 43 53 57 64 54 31 46 58 90 128 135
335 27 175 128 65 85 119 89 121 117 131 140 131 144 127 133 129 116 82 25 3 358 18 22 17 17 9 4 4 6 13 16 8 14 15 25 28 58 51 56 52 67 64 77 76 80 76 94 117
100 238 28 10 86 96 68 292 188 156 171 141 149 137 139 132 126 112 33 14 16 24 29 30 22 16 7 6 12 10 8 9 15 28 38 33 72 70 53 64 62 52 74 77 77 77 78 89 113
21 26 57 108 79 141 150 260 229 178 161 158 154 146 144 145 132 91 40 24 32 35 40 34 23 11 16 17 17 20 24 21 16 30 46 41 61 64 50 50 47 63 67 80 67 72 72 87 99
94 105 104 114 42 63 112 6 141 135 161 153 150 142 148 139 121 64 27 31 42 41 44 30 23 25 21 11 18 20 27 29 34 34 33 34 47 45 53 50 42 37 34 91 97 72 72 64 64
Wind_Speed_850mb
18 13 9 5 10 13 9 12 14 15 26 48 61 37 28 33 7 22 38 41 35 25 26 23 20 21 21 19 17 15 14 13 10 13 15 18 22 26 29 32 34 34 34 33 32 32 32 31 28
11 8 2 8 9 10 5 8 15 13 33 47 44 43 46 27 41 40 38 37 30 28 25 21 19 18 17 15 14 12 12 9 9 11 15 18 21 26 28 31 32 32 32 31 31 31 32 32 31
1 6 6 9 9 12 6 12 17 28 34 22 19 35 18 31 27 21 35 42 34 28 23 20 18 16 14 13 11 10 9 8 10 12 15 19 22 25 27 28 28 27 27 26 26 26 28 29 30
6 6 8 9 19 11 21 18 10 17 20 23 17 21 26 34 32 44 44 38 29 25 22 19 16 16 15 13 9 8 6 8 9 12 15 18 22 24 25 24 23 22 21 19 18 19 21 24 27
2 8 11 10 8 5 5 11 16 14 6 15 45 26 25 46 48 43 44 38 31 28 21 18 15 13 11 10 10 8 7 7 7 9 12 16 19 20 20 19 17 15 13 10 11 14 17 19 20
2 9 9 6 6 13 2 10 4 12 25 42 47 37 23 35 47 45 43 41 37 39 31 23 18 15 14 12 11 12 11 9 9 10 12 14 15 15 13 11 9 7 5 4 8 12 13 12 18
6 9 9 9 6 12 10 5 11 8 14 19 26 16 24 53 54 49 48 42 40 36 32 25 24 17 14 13 15 15 14 12 11 10 10 10 8 8 7 5 2 2 3 4 6 6 5 4 10
7 12 12 9 3 9 2 10 11 16 17 18 29 11 18 36 54 60 57 50 41 34 28 23 20 16 12 12 12 12 13 14 14 14 12 12 14 13 12 7 4 7 9 5 5 7 5 8 5
8 8 12 16 19 13 12 7 3 4 26 45 27 50 38 49 55 54 55 50 46 42 34 22 20 17 13 10 12 13 13 11 13 14 15 14 14 17 16 15 16 17 18 15 13 13 15 11 10
9 10 8 12 14 14 23 2 11 11 38 32 41 43 48 44 44 47 45 44 36 24 19 26 23 19 13 14 13 9 8 10 9 7 10 14 18 18 23 23 26 26 29 29 24 23 23 18 18
10 10 30 22 57 53 16 11 15 30 16 20 30 45 45 41 42 43 42 38 29 26 25 26 23 20 11 10 5 1 4 10 14 17 22 22 25 27 24 22 32 35 48 42 36 25 29 12 27
40 40 29 31 43 31 16 14 31 37 25 37 42 43 45 41 39 37 34 36 28 22 18 13 12 8 6 2 1 4 9 13 16 14 14 19 25 27 25 20 25 21 24 27 18 31 40 40 37
60 33 43 55 52 53 50 35 34 45 43 42 39 36 38 40 36 34 30 29 25 24 23 17 12 11 10 7 7 9 12 20 24 22 23 24 25 28 29 27 24 22 29 33 33 23 26 33 38
43 60 63 63 56 53 41 45 15 33 36 39 36 35 33 30 30 27 24 22 21 22 22 17 16 16 12 11 10 12 22 23 20 25 23 20 15 19 24 25 21 21 24 26 30 36 39 43 45
57 29 34 47 50 20 67 20 21 40 39 36 28 22 25 29 26 26 25 25 20 21 22 24 25 28 27 21 18 18 20 24 22 27 27 26 33 36 31 19 13 15 14 15 20 25 30 36 40
6 12 8 15 29 13 8 16 41 46 41 18 19 19 23 26 30 26 20 20 19 21 24 30 30 33 39 18 15 22 27 26 26 19 26 24 27 37 28 28 23 25 27 27 23 20 22 28 34
15 5 6 13 17 15 15 27 36 39 31 33 27 27 22 24 24 25 20 20 18 18 22 26 27 36 31 27 20 40 42 36 25 15 17 19 27 25 32 40 31 37 35 31 23 18 21 23 22
9 6 2 8 8 42 43 42 31 13 20 27 30 31 25 23 20 17 20 16 11 9 16 24 26 28 22 19 32 42 36 33 21 11 16 16 16 23 31 34 38 35 32 28 27 30 25 24 19
10 8 12 13 15 37 37 34 21 16 26 24 27 26 25 20 16 13 10 0 8 7 19 20 19 25 25 26 44 46 40 32 27 21 23 24 26 22 26 32 29 31 33 28 24 29 31 27 24
12 7 10 31 48 45 30 22 11 19 16 23 30 25 23 17 11 2 6 6 8 7 12 15 22 27 32 44 50 47 41 30 27 29 26 24 26 25 28 27 28 33 28 26 23 25 28 28 21
7 5 3 27 34 40 48 17 10 11 15 15 19 19 16 13 9 3 2 3 10 6 12 23 23 27 35 48 46 44 48 42 35 30 28 24 26 26 27 30 33 30 22 23 19 18 18 19 15
16 10 14 30 15 11 17 9 6 1 5 25 19 22 26 13 8 4 9 10 6 9 12 7 20 34 44 42 44 42 39 35 30 29 26 22 22 23 27 33 32 23 28 21 16 11 11 14 10
3 3 9 9 14 11 13 11 5 8 5 12 19 25 21 11 12 5 15 4 5 6 8 19 28 33 37 45 44 40 36 33 32 34 32 24 23 25 27 26 26 21 15 15 11 10 7 7 7
2 17 18 11 9 9 16 8 6 4 12 12 23 25 16 10 11 5 6 7 5 3 13 26 37 41 44 51 41 45 42 34 36 33 29 27 22 22 18 16 14 9 8 10 9 8 7 6 10
23 16 8 10 10 4 8 14 7 7 12 19 33 27 15 12 8 14 12 6 12 18 25 35 44 34 34 38 39 46 44 40 32 31 30 25 20 15 9 7 6 9 9 14 14 8 5 4 9
9 12 9 4 5 8 11 6 4 3 25 27 27 20 23 14 11 19 14 11 14 26 35 40 28 33 35 43 42 38 38 35 31 35 30 19 14 12 19 13 10 12 15 14 17 14 10 8 11
8 7 3 8 10 10 2 2 5 17 19 30 27 24 20 24 21 14 10 14 25 29 28 29 30 32 39 51 40 33 37 44 38 30 24 18 12 21 18 18 16 18 18 27 29 25 21 14 19
13 5 10 8 5 6 4 2 2 16 18 19 26 27 33 31 22 11 10 20 25 27 24 20 27 34 38 44 38 35 30 31 33 29 24 16 22 22 19 22 18 17 14 21 23 27 27 21 18
12 10 11 9 6 8 8 4 9 12 15 19 28 26 41 31 17 10 15 22 21 19 18 23 28 33 36 42 43 40 34 34 25 25 20 19 23 17 12 15 15 14 13 15 19 22 23 23 24
9 8 9 9 2 6 7 2 8 28 32 40 36 39 40 27 15 14 20 21 23 18 17 21 30 29 38 40 39 42 38 31 32 27 24 18 13 12 12 13 14 13 7 9 10 12 17 18 21
Wind_Direction_850mb
320 319 325 9 52 69 44 344 311 49 60 73 78 83 72 58 35 121 135 137 144 152 132 127 121 119 118 126 126 123 121 117 103 109 115 119 121 120 118 116 116 113 108 102 97 92 89 89 98
291 315 20 79 78 61 33 314 341 328 98 91 84 88 77 79 94 127 126 131 141 135 130 128 124 120 122 125 123 129 133 128 117 123 127 128 127 125 124 123 119 115 109 105 100 93 85 80 80
1 315 48 100 79 87 29 318 328 0 9 44 82 68 65 119 96 108 124 125 134 125 123 122 123 123 128 131 136 141 141 131 130 134 135 135 133 130 130 129 126 121 115 108 97 87 77 75 74
161 92 102 64 99 134 165 239 296 337 340 358 108 57 66 105 114 130 122 124 118 120 123 117 121 128 133 135 131 130 113 120 137 145 146 140 138 137 136 136 132 127 118 107 90 74 67 69 76
48 83 48 71 82 90 31 79 24 65 165 89 81 86 85 100 114 118 116 112 104 107 104 108 108 115 119 109 91 77 86 100 124 138 142 142 142 141 142 144 141 133 130 104 74 59 53 60 73
111 108 75 93 129 139 81 31 215 184 120 110 81 88 76 120 126 117 106 99 97 93 81 80 89 96 97 93 81 81 87 102 118 129 139 145 146 148 150 152 141 131 140 81 36 26 31 55 76
138 80 104 126 126 34 32 33 260 162 65 35 93 89 102 105 112 110 112 108 100 90 80 79 77 76 80 94 91 90 91 95 103 110 118 128 129 135 158 170 165 33 37 4 16 347 7 101 103
189 90 120 126 187 52 205 231 280 55 59 66 35 116 94 103 120 122 114 108 110 97 87 75 67 73 79 87 91 85 92 102 109 114 127 157 172 184 192 206 233 247 213 270 286 285 202 207 204
215 75 130 153 139 216 186 178 279 352 90 63 82 95 110 112 127 124 114 109 103 95 90 76 68 65 70 77 90 98 111 124 137 151 179 198 210 216 205 217 228 225 232 248 253 246 216 221 241
95 94 63 185 101 126 135 198 104 92 91 83 75 104 117 132 108 106 98 91 88 81 76 90 95 90 78 83 104 112 135 168 170 192 215 232 236 236 242 236 250 250 258 262 258 246 226 227 250
22 108 113 83 119 133 126 108 29 116 72 78 95 99 110 110 94 91 85 80 72 68 74 67 77 93 93 116 124 155 272 266 275 280 265 268 264 259 260 260 259 257 267 261 288 249 225 250 258
90 70 99 125 113 118 113 80 70 72 86 103 101 102 102 99 94 90 84 84 85 76 65 78 68 52 47 74 240 262 276 295 305 299 284 270 273 280 283 285 271 265 254 248 263 270 252 258 246
106 111 121 133 138 139 130 112 99 87 101 104 102 91 91 93 90 87 85 92 93 91 89 81 82 75 62 34 14 343 330 313 313 318 299 288 281 288 291 290 285 267 261 277 287 267 235 231 238
147 136 131 144 139 130 110 125 87 113 111 93 87 91 98 93 92 94 98 92 83 74 59 62 60 58 56 44 37 16 355 358 344 343 342 338 344 348 329 312 304 289 281 270 265 265 262 261 262
147 121 132 152 149 132 119 72 93 108 92 84 76 67 90 103 108 99 94 89 79 61 50 46 37 25 14 0 358 7 348 332 327 339 337 335 335 344 342 328 331 317 309 290 278 273 274 270 266
211 73 39 168 146 113 279 99 104 103 79 75 95 96 104 107 106 99 87 74 63 52 44 44 35 15 14 353 329 342 323 312 312 329 307 311 318 326 338 349 325 332 324 308 306 303 302 294 280
2 141 179 19 73 104 93 130 115 104 110 161 135 121 119 119 110 99 75 63 50 39 36 26 18 17 22 17 6 4 356 327 319 311 295 312 323 319 331 328 317 312 309 304 312 307 312 311 298
224 153 315 160 67 90 100 109 106 119 135 147 142 137 133 126 116 94 67 46 22 2 16 17 12 17 16 9 1 355 349 340 342 325 330 326 303 304 314 307 307 305 300 297 295 299 311 316 324
150 114 208 75 99 68 94 116 120 145 179 150 138 144 151 141 121 102 80 356 284 309 8 6 2 2 356 348 348 351 343 322 320 309 315 294 295 305 308 311 312 320 312 302 302 299 297 302 313
116 97 93 60 87 98 116 118 137 170 162 160 155 158 154 136 112 129 251 234 312 10 11 344 341 349 345 347 349 348 338 329 317 307 316 303 300 301 297 308 316 323 323 310 304 299 294 290 305
125 131 52 129 90 124 125 88 100 76 115 141 166 168 148 134 151 176 12 299 322 270 349 353 342 334 339 345 343 345 339 336 327 323 324 329 318 306 293 299 316 320 323 320 320 308 281 280 290
41 326 37 127 166 185 211 120 95 132 41 120 101 139 149 137 141 205 343 25 16 341 346 334 331 343 346 347 341 338 341 344 338 330 327 325 313 302 288 302 312 318 309 319 322 312 266 264 267
162 346 32 58 71 116 38 90 96 198 92 116 127 153 164 142 179 24 48 46 17 319 308 338 336 347 355 349 342 349 350 341 331 323 316 301 295 291 291 314 319 318 314 317 318 308 282 249 219
119 39 35 45 85 55 321 115 313 243 155 156 172 187 153 156 210 175 129 205 356 68 341 345 345 349 341 335 355 352 349 346 340 336 334 335 323 294 304 316 327 350 10 356 331 320 315 259 204
56 51 3 4 29 81 297 54 214 226 188 171 177 177 178 157 124 124 130 60 15 358 348 340 337 353 4 360 353 347 339 334 344 350 345 339 340 348 321 338 48 48 13 4 344 322 259 181 191
77 125 140 265 189 175 16 83 211 157 127 154 160 158 147 120 122 109 92 56 13 354 349 1 22 12 11 3 356 3 9 5 358 352 350 355 350 27 43 53 57 64 54 31 46 58 90 128 135
335 27 175 128 65 85 119 89 121 117 131 140 131 144 127 133 129 116 82 25 3 358 18 22 17 17 9 4 4 6 13 16 8 14 15 25 28 58 51 56 52 67 64 77 76 80 76 94 117
100 238 28 10 86 96 68 292 188 156 171 141 149 137 139 132 126 112 33 14 16 24 29 30 22 16 7 6 12 10 8 9 15 28 38 33 72 70 53 64 62 52 74 77 77 77 78 89 113
21 26 57 108 79 141 150 260 229 178 161 158 154 146 144 145 132 91 40 24 32 35 40 34 23 11 16 17 17 20 24 21 16 30 46 41 61 64 50 50 47 63 67 80 67 72 72 87 99
94 105 104 114 42 63 112 6 141 135 161 153 150 142 148 139 121 64 27 31 42 41 44 30 23 25 21 11 18 20 27 29 34 34 33 34 47 45 53 50 42 37 34 91 97 72 72 64 64